Time,TemperatureF,DewpointF,PressureIn,WindDirection,WindDirectionDegrees,WindSpeedMPH,WindSpeedGustMPH,Humidity,HourlyPrecipIn,Conditions,Clouds,dailyrainin,SoftwareType,DateUTC
2013-09-29 00:02:00,75.0,73.8,29.91,ENE,62,0.0,0.0,96,0.00,RA,,0.00,WeatherDisplay:10.37,2013-09-29 05:02:00,
2013-09-29 00:07:00,75.0,73.8,29.91,ENE,57,0.0,0.3,96,0.00,RA,,0.00,WeatherDisplay:10.37,2013-09-29 05:07:00,
2013-09-29 00:12:00,75.0,73.8,29.91,NE,56,0.0,0.0,96,0.00,CLR,,0.00,WeatherDisplay:10.37,2013-09-29 05:12:00,
2013-09-29 00:17:00,75.1,73.9,29.90,NE,56,0.0,0.0,96,0.00,CLR,,0.00,WeatherDisplay:10.37,2013-09-29 05:17:00,
2013-09-29 00:21:00,75.2,74.0,29.90,NE,48,1.0,0.0,96,0.00,CLR,,0.00,WeatherDisplay:10.37,2013-09-29 05:21:00,
2013-09-29 00:27:00,75.2,74.0,29.90,NE,48,1.2,1.2,96,0.00,CLR,,0.00,WeatherDisplay:10.37,2013-09-29 05:27:00,
2013-09-29 00:32:00,75.2,74.0,29.91,NE,48,1.2,0.0,96,0.00,CLR,,0.00,WeatherDisplay:10.37,2013-09-29 05:32:00,
2013-09-29 00:37:00,75.2,74.0,29.91,NE,48,1.2,0.0,96,0.00,CLR,,0.00,WeatherDisplay:10.37,2013-09-29 05:37:00,
2013-09-29 00:42:00,75.2,74.0,29.91,NE,48,0.0,0.0,96,0.00,CLR,,0.00,WeatherDisplay:10.37,2013-09-29 05:42:00,
2013-09-29 00:47:00,75.4,74.2,29.91,NE,48,0.0,0.0,96,0.00,CLR,,0.00,WeatherDisplay:10.37,2013-09-29 05:47:00,
2013-09-29 00:52:00,75.4,74.2,29.90,NE,48,0.0,0.0,96,0.00,CLR,,0.00,WeatherDisplay:10.37,2013-09-29 05:52:00,
2013-09-29 00:57:00,75.4,74.2,29.90,ENE,59,0.0,0.0,96,0.00,CLR,,0.00,WeatherDisplay:10.37,2013-09-29 05:57:00,
2013-09-29 01:02:00,75.4,74.2,29.90,ENE,59,0.0,0.0,96,0.00,CLR,,0.00,WeatherDisplay:10.37,2013-09-29 06:02:00,
2013-09-29 01:07:00,75.5,74.3,29.90,ENE,59,1.2,1.2,96,0.00,CLR,,0.00,WeatherDisplay:10.37,2013-09-29 06:07:00,
2013-09-29 01:12:00,75.5,74.3,29.90,ENE,59,0.0,0.0,96,0.00,CLR,,0.00,WeatherDisplay:10.37,2013-09-29 06:12:00,
2013-09-29 01:17:00,75.5,74.0,29.90,East,90,1.2,1.2,95,0.00,CLR,,0.00,WeatherDisplay:10.37,2013-09-29 06:17:00,
2013-09-29 01:22:00,75.5,74.0,29.90,ENE,59,1.2,0.0,95,0.00,CLR,,0.00,WeatherDisplay:10.37,2013-09-29 06:22:00,
2013-09-29 01:27:00,75.5,74.3,29.90,ENE,67,1.2,0.0,96,0.01,RA,,0.01,WeatherDisplay:10.37,2013-09-29 06:27:00,
2013-09-29 01:32:00,75.5,74.3,29.90,ENE,67,0.0,0.0,96,0.02,RA,,0.02,WeatherDisplay:10.37,2013-09-29 06:32:00,
2013-09-29 01:37:00,75.5,74.3,29.90,ENE,67,0.0,0.2,96,0.02,RA,,0.02,WeatherDisplay:10.37,2013-09-29 06:37:00,
2013-09-29 01:42:00,75.5,74.3,29.90,ENE,67,0.0,0.0,96,0.03,RA,,0.03,WeatherDisplay:10.37,2013-09-29 06:42:00,
2013-09-29 01:47:00,75.5,74.3,29.91,ENE,67,0.0,0.0,96,0.03,RA,,0.03,WeatherDisplay:10.37,2013-09-29 06:47:00,
2013-09-29 01:52:00,75.6,74.4,29.90,ENE,67,0.0,0.0,96,0.03,CLR,,0.03,WeatherDisplay:10.37,2013-09-29 06:52:00,
2013-09-29 01:57:00,75.5,74.3,29.90,ENE,67,0.0,0.0,96,0.03,CLR,,0.03,WeatherDisplay:10.37,2013-09-29 06:57:00,
2013-09-29 02:02:00,75.5,74.3,29.91,WNW,295,3.5,3.5,96,0.05,RA,,0.05,WeatherDisplay:10.37,2013-09-29 07:02:00,
2013-09-29 02:07:00,75.1,73.3,29.90,NNW,334,6.9,6.9,94,0.06,RA,,0.08,WeatherDisplay:10.37,2013-09-29 07:07:00,
2013-09-29 02:12:00,74.5,72.7,29.90,ENE,59,4.6,4.6,94,0.12,RA,,0.14,WeatherDisplay:10.37,2013-09-29 07:12:00,
2013-09-29 02:17:00,73.9,71.7,29.90,North,355,11.5,11.5,93,0.18,RA,,0.18,WeatherDisplay:10.37,2013-09-29 07:17:00,
2013-09-29 02:22:00,73.4,71.6,29.92,NW,309,9.2,9.2,94,0.27,RA,,0.29,WeatherDisplay:10.37,2013-09-29 07:22:00,
2013-09-29 02:27:00,73.0,71.2,29.93,North,355,9.2,9.2,94,0.42,RA,,0.45,WeatherDisplay:10.37,2013-09-29 07:27:00,
2013-09-29 02:32:00,72.6,70.8,29.93,NNW,346,6.9,6.9,94,0.62,RA,,0.70,WeatherDisplay:10.37,2013-09-29 07:32:00,
2013-09-29 02:37:00,72.3,70.8,29.93,North,360,8.1,8.1,95,0.90,RA,,0.95,WeatherDisplay:10.37,2013-09-29 07:37:00,
2013-09-29 02:42:00,72.0,70.5,29.92,NE,38,5.0,5.0,95,1.08,RA,,1.16,WeatherDisplay:10.37,2013-09-29 07:42:00,
2013-09-29 02:47:00,71.8,70.3,29.92,North,360,5.8,5.8,95,1.33,RA,,1.39,WeatherDisplay:10.37,2013-09-29 07:47:00,
2013-09-29 02:52:00,71.6,70.1,29.93,NNE,24,4.6,4.6,95,1.47,RA,,1.51,WeatherDisplay:10.37,2013-09-29 07:52:00,
2013-09-29 02:57:00,71.5,70.0,29.94,North,355,3.5,3.5,95,1.56,RA,,1.60,WeatherDisplay:10.37,2013-09-29 07:57:00,
2013-09-29 03:02:00,71.4,70.2,29.94,NE,41,3.5,3.5,96,1.59,RA,,1.65,WeatherDisplay:10.37,2013-09-29 08:02:00,
2013-09-29 03:07:00,71.3,70.1,29.94,NE,44,2.3,2.3,96,1.61,RA,,1.67,WeatherDisplay:10.37,2013-09-29 08:07:00,
2013-09-29 03:12:00,71.2,70.0,29.93,NNE,30,2.3,2.3,96,1.58,RA,,1.70,WeatherDisplay:10.37,2013-09-29 08:12:00,
2013-09-29 03:17:00,71.2,70.0,29.93,NE,39,2.3,2.3,96,1.53,RA,,1.72,WeatherDisplay:10.37,2013-09-29 08:17:00,
2013-09-29 03:22:00,71.3,70.1,29.94,NNE,12,6.9,6.9,96,1.43,RA,,1.72,WeatherDisplay:10.37,2013-09-29 08:22:00,
2013-09-29 03:27:00,71.4,70.2,29.94,NE,50,3.5,3.5,96,1.27,RA,,1.73,WeatherDisplay:10.37,2013-09-29 08:27:00,
2013-09-29 03:32:00,71.5,70.3,29.95,ENE,76,0.0,0.0,96,1.04,RA,,1.74,WeatherDisplay:10.37,2013-09-29 08:32:00,
2013-09-29 03:37:00,71.5,70.3,29.94,ENE,64,0.0,0.0,96,0.79,RA,,1.74,WeatherDisplay:10.37,2013-09-29 08:37:00,
2013-09-29 03:42:00,71.5,70.3,29.94,ENE,73,1.2,1.2,96,0.59,RA,,1.75,WeatherDisplay:10.37,2013-09-29 08:42:00,
2013-09-29 03:47:00,71.4,70.2,29.94,ENE,78,0.0,0.0,96,0.36,RA,,1.75,WeatherDisplay:10.37,2013-09-29 08:47:00,
2013-09-29 03:52:00,71.4,70.2,29.94,ENE,78,0.0,0.0,96,0.23,CLR,,1.75,WeatherDisplay:10.37,2013-09-29 08:52:00,
2013-09-29 03:57:00,71.4,70.2,29.94,ENE,78,0.0,0.0,96,0.16,RA,,1.76,WeatherDisplay:10.37,2013-09-29 08:57:00,
2013-09-29 04:02:00,71.3,70.1,29.94,ENE,78,0.0,0.0,96,0.11,RA,,1.76,WeatherDisplay:10.37,2013-09-29 09:02:00,
2013-09-29 04:07:00,71.3,70.1,29.94,ENE,78,0.0,0.0,96,0.09,,,1.76,WeatherDisplay:10.37,2013-09-29 09:07:00,
2013-09-29 04:12:00,71.3,70.1,29.93,ENE,78,0.0,0.0,96,0.06,CLR,,1.76,WeatherDisplay:10.37,2013-09-29 09:12:00,
2013-09-29 04:17:00,71.2,70.0,29.93,NW,322,1.2,1.2,96,0.04,CLR,,1.76,WeatherDisplay:10.37,2013-09-29 09:17:00,
2013-09-29 04:22:00,71.2,70.0,29.92,NNE,14,2.3,2.3,96,0.04,CLR,,1.76,WeatherDisplay:10.37,2013-09-29 09:22:00,
2013-09-29 04:27:00,71.1,69.9,29.92,NE,36,3.5,3.5,96,0.03,CLR,,1.77,WeatherDisplay:10.37,2013-09-29 09:27:00,
2013-09-29 04:32:00,71.0,69.8,29.92,North,360,3.5,3.5,96,0.03,RA,,1.77,WeatherDisplay:10.37,2013-09-29 09:32:00,
2013-09-29 04:37:00,71.0,69.8,29.93,NNW,332,2.3,0.0,96,0.03,RA,,1.77,WeatherDisplay:10.37,2013-09-29 09:37:00,
2013-09-29 04:42:00,71.1,69.9,29.93,WNW,300,1.2,0.0,96,0.02,CLR,,1.77,WeatherDisplay:10.37,2013-09-29 09:42:00,
2013-09-29 04:47:00,71.1,69.9,29.92,NNW,338,1.2,1.2,96,0.02,CLR,,1.77,WeatherDisplay:10.37,2013-09-29 09:47:00,
2013-09-29 04:52:00,71.0,69.8,29.92,NW,317,3.5,3.5,96,0.02,CLR,,1.77,WeatherDisplay:10.37,2013-09-29 09:52:00,
2013-09-29 04:57:00,70.9,69.7,29.92,NNW,338,2.3,2.3,96,0.01,CLR,,1.77,WeatherDisplay:10.37,2013-09-29 09:57:00,
2013-09-29 05:02:00,70.7,69.5,29.92,North,360,2.3,2.3,96,0.01,CLR,,1.78,WeatherDisplay:10.37,2013-09-29 10:02:00,
2013-09-29 05:07:00,70.5,69.3,29.92,NNW,330,2.3,2.3,96,0.02,RA,,1.78,WeatherDisplay:10.37,2013-09-29 10:07:00,
2013-09-29 05:12:00,70.4,69.2,29.92,NNE,24,5.0,5.0,96,0.02,RA,,1.78,WeatherDisplay:10.37,2013-09-29 10:12:00,
2013-09-29 05:17:00,70.4,69.2,29.92,NNE,24,2.3,0.0,96,0.02,CLR,,1.78,WeatherDisplay:10.37,2013-09-29 10:17:00,
2013-09-29 05:22:00,70.3,69.1,29.92,North,360,3.5,3.5,96,0.02,CLR,,1.78,WeatherDisplay:10.37,2013-09-29 10:22:00,
2013-09-29 05:27:00,70.3,69.1,29.93,NNE,26,2.3,2.3,96,0.02,CLR,,1.78,WeatherDisplay:10.37,2013-09-29 10:27:00,
2013-09-29 05:32:00,70.2,69.0,29.93,North,355,3.5,3.5,96,0.01,CLR,,1.78,WeatherDisplay:10.37,2013-09-29 10:32:00,
2013-09-29 05:37:00,70.2,69.0,29.93,NE,34,2.3,2.3,96,0.01,CLR,,1.78,WeatherDisplay:10.37,2013-09-29 10:37:00,
2013-09-29 05:42:00,70.2,69.0,29.93,NNE,31,1.0,1.0,96,0.01,CLR,,1.78,WeatherDisplay:10.37,2013-09-29 10:42:00,
2013-09-29 05:47:00,70.3,69.1,29.94,NE,53,3.5,3.5,96,0.01,CLR,,1.78,WeatherDisplay:10.37,2013-09-29 10:47:00,
2013-09-29 05:52:00,70.3,69.1,29.94,NE,55,1.2,1.2,96,0.01,CLR,,1.78,WeatherDisplay:10.37,2013-09-29 10:52:00,
2013-09-29 05:57:00,70.3,69.1,29.95,NE,48,1.0,1.0,96,0.01,CLR,,1.78,WeatherDisplay:10.37,2013-09-29 10:57:00,
2013-09-29 06:02:00,70.3,69.1,29.95,NE,40,1.2,1.2,96,0.01,CLR,,1.78,WeatherDisplay:10.37,2013-09-29 11:02:00,
2013-09-29 06:07:00,70.3,69.1,29.96,NE,45,1.2,1.2,96,0.00,CLR,,1.78,WeatherDisplay:10.37,2013-09-29 11:07:00,
2013-09-29 06:12:00,70.3,69.4,29.96,North,11,0.0,0.5,97,0.00,CLR,,1.78,WeatherDisplay:10.37,2013-09-29 11:12:00,
2013-09-29 06:17:00,70.3,69.1,29.96,NNE,23,3.5,3.5,96,0.00,CLR,,1.78,WeatherDisplay:10.37,2013-09-29 11:17:00,
2013-09-29 06:22:00,70.2,69.0,29.96,NE,39,0.0,0.0,96,0.00,CLR,,1.78,WeatherDisplay:10.37,2013-09-29 11:22:00,
2013-09-29 06:27:00,70.1,68.9,29.96,NE,43,0.0,0.0,96,0.00,CLR,,1.78,WeatherDisplay:10.37,2013-09-29 11:27:00,
2013-09-29 06:32:00,70.1,68.9,29.96,NE,43,0.0,0.0,96,0.00,CLR,,1.78,WeatherDisplay:10.37,2013-09-29 11:32:00,
2013-09-29 06:37:00,70.0,68.8,29.96,NE,43,0.0,0.0,96,0.00,CLR,,1.78,WeatherDisplay:10.37,2013-09-29 11:37:00,
2013-09-29 06:43:00,69.9,68.7,29.96,NNE,24,2.3,2.3,96,0.00,CLR,,1.78,WeatherDisplay:10.37,2013-09-29 11:43:00,
2013-09-29 06:48:00,69.7,68.5,29.96,North,5,2.3,2.3,96,0.00,CLR,,1.78,WeatherDisplay:10.37,2013-09-29 11:48:00,
2013-09-29 06:53:00,69.7,68.5,29.96,NNE,15,2.3,2.3,96,0.00,CLR,,1.78,WeatherDisplay:10.37,2013-09-29 11:53:00,
2013-09-29 06:58:00,69.6,68.4,29.96,NNE,28,2.3,2.3,96,0.00,CLR,,1.78,WeatherDisplay:10.37,2013-09-29 11:58:00,
2013-09-29 07:03:00,69.5,68.3,29.96,North,350,0.0,0.0,96,0.00,CLR,,1.78,WeatherDisplay:10.37,2013-09-29 12:03:00,
2013-09-29 07:08:00,69.5,68.3,29.96,NNE,15,2.3,2.3,96,0.00,CLR,,1.78,WeatherDisplay:10.37,2013-09-29 12:08:00,
2013-09-29 07:13:00,69.4,68.2,29.96,NNE,28,2.3,2.3,96,0.00,CLR,,1.78,WeatherDisplay:10.37,2013-09-29 12:13:00,
2013-09-29 07:18:00,69.2,68.0,29.96,NW,319,2.3,2.3,96,0.00,CLR,,1.78,WeatherDisplay:10.37,2013-09-29 12:18:00,
2013-09-29 07:23:00,68.7,67.2,29.96,NW,322,3.5,3.5,95,0.00,CLR,,1.78,WeatherDisplay:10.37,2013-09-29 12:23:00,
2013-09-29 07:28:00,68.4,66.9,29.96,NNW,330,4.6,4.6,95,0.00,CLR,,1.78,WeatherDisplay:10.37,2013-09-29 12:28:00,
2013-09-29 07:33:00,67.9,66.4,29.96,NW,317,2.3,2.3,95,0.00,CLR,,1.78,WeatherDisplay:10.37,2013-09-29 12:33:00,
2013-09-29 07:38:00,67.7,66.2,29.96,NE,40,2.3,2.3,95,0.00,CLR,,1.78,WeatherDisplay:10.37,2013-09-29 12:38:00,
2013-09-29 07:43:00,67.5,66.0,29.95,NNE,24,1.2,0.0,95,0.00,CLR,,1.78,WeatherDisplay:10.37,2013-09-29 12:43:00,
2013-09-29 07:48:00,67.3,65.8,29.95,NNE,13,3.5,3.5,95,0.00,CLR,,1.78,WeatherDisplay:10.37,2013-09-29 12:48:00,
2013-09-29 07:53:00,67.1,65.6,29.95,North,5,3.5,3.5,95,0.01,RA,,1.79,WeatherDisplay:10.37,2013-09-29 12:53:00,
2013-09-29 07:58:00,66.9,65.7,29.95,NNW,344,6.9,6.9,96,0.01,RA,,1.79,WeatherDisplay:10.37,2013-09-29 12:58:00,
2013-09-29 08:03:00,66.8,65.3,29.95,NNE,32,5.0,5.0,95,0.01,,,1.79,WeatherDisplay:10.37,2013-09-29 13:03:00,
2013-09-29 08:08:00,66.6,65.4,29.95,NW,325,6.9,6.9,96,0.01,CLR,,1.79,WeatherDisplay:10.37,2013-09-29 13:08:00,
2013-09-29 08:13:00,66.5,65.3,29.95,NW,326,3.5,3.5,96,0.01,CLR,,1.79,WeatherDisplay:10.37,2013-09-29 13:13:00,
2013-09-29 08:18:00,66.4,65.2,29.95,North,5,5.8,5.8,96,0.01,CLR,,1.79,WeatherDisplay:10.37,2013-09-29 13:18:00,
2013-09-29 08:23:00,66.4,65.2,29.95,NW,325,8.1,8.1,96,0.01,CLR,,1.79,WeatherDisplay:10.37,2013-09-29 13:23:00,
2013-09-29 08:28:00,66.3,65.1,29.95,NW,324,2.3,2.3,96,0.01,CLR,,1.79,WeatherDisplay:10.37,2013-09-29 13:28:00,
2013-09-29 08:33:00,66.3,65.1,29.95,NW,316,5.8,5.8,96,0.01,CLR,,1.79,WeatherDisplay:10.37,2013-09-29 13:33:00,
2013-09-29 08:38:00,66.3,65.1,29.96,NNE,25,4.6,4.6,96,0.01,CLR,,1.79,WeatherDisplay:10.37,2013-09-29 13:38:00,
2013-09-29 08:43:00,66.2,65.0,29.96,North,5,10.4,10.4,96,0.01,CLR,,1.79,WeatherDisplay:10.37,2013-09-29 13:43:00,
2013-09-29 08:48:00,66.1,64.9,29.96,North,355,5.8,5.8,96,0.01,CLR,,1.79,WeatherDisplay:10.37,2013-09-29 13:48:00,
2013-09-29 08:53:00,66.2,65.0,29.97,NE,43,4.6,4.6,96,0.00,CLR,,1.79,WeatherDisplay:10.37,2013-09-29 13:53:00,
2013-09-29 08:58:00,66.3,65.1,29.97,North,10,5.8,5.8,96,0.00,CLR,,1.79,WeatherDisplay:10.37,2013-09-29 13:58:00,
2013-09-29 09:03:00,66.4,65.5,29.97,NNE,22,3.5,3.5,97,0.00,CLR,,1.79,WeatherDisplay:10.37,2013-09-29 14:03:00,
2013-09-29 09:08:00,66.4,65.2,29.97,ENE,71,2.3,2.3,96,0.00,CLR,,1.79,WeatherDisplay:10.37,2013-09-29 14:08:00,
2013-09-29 09:13:00,66.5,65.6,29.97,North,355,1.2,1.2,97,0.00,CLR,,1.79,WeatherDisplay:10.37,2013-09-29 14:13:00,
2013-09-29 09:18:00,66.7,65.8,29.97,NW,323,6.0,6.0,97,0.00,CLR,,1.79,WeatherDisplay:10.37,2013-09-29 14:18:00,
2013-09-29 09:23:00,66.7,65.5,29.97,North,360,2.3,2.3,96,0.00,CLR,,1.79,WeatherDisplay:10.37,2013-09-29 14:23:00,
2013-09-29 09:28:00,66.8,65.6,29.97,NW,315,6.9,6.9,96,0.00,CLR,,1.79,WeatherDisplay:10.37,2013-09-29 14:28:00,
2013-09-29 09:33:00,66.8,65.6,29.97,NE,54,6.9,6.9,96,0.00,CLR,,1.79,WeatherDisplay:10.37,2013-09-29 14:33:00,
2013-09-29 09:38:00,66.9,65.7,29.98,ENE,67,3.5,3.5,96,0.00,CLR,,1.79,WeatherDisplay:10.37,2013-09-29 14:38:00,
2013-09-29 09:43:00,67.0,65.8,29.98,NNW,330,4.6,4.6,96,0.00,CLR,,1.79,WeatherDisplay:10.37,2013-09-29 14:43:00,
2013-09-29 09:48:00,67.1,65.9,29.98,NNE,29,6.9,6.9,96,0.00,CLR,,1.79,WeatherDisplay:10.37,2013-09-29 14:48:00,
2013-09-29 09:53:00,67.1,65.9,29.98,NW,315,6.9,6.9,96,0.00,CLR,,1.79,WeatherDisplay:10.37,2013-09-29 14:53:00,
2013-09-29 09:58:00,67.1,65.9,29.98,North,11,5.8,5.8,96,0.00,CLR,,1.79,WeatherDisplay:10.37,2013-09-29 14:58:00,
2013-09-29 10:03:00,67.0,65.5,29.98,NNW,343,9.2,9.2,95,0.00,CLR,,1.79,WeatherDisplay:10.37,2013-09-29 15:03:00,
2013-09-29 10:08:00,67.0,65.5,29.99,NNW,339,4.0,4.0,95,0.00,CLR,,1.79,WeatherDisplay:10.37,2013-09-29 15:08:00,
2013-09-29 10:13:00,67.1,65.9,29.99,North,360,4.0,4.0,96,0.00,CLR,,1.79,WeatherDisplay:10.37,2013-09-29 15:13:00,
2013-09-29 10:18:00,67.2,66.0,29.99,NE,45,8.1,8.1,96,0.00,CLR,,1.79,WeatherDisplay:10.37,2013-09-29 15:18:00,
2013-09-29 10:23:00,67.4,65.9,29.99,NNE,22,3.5,3.5,95,0.00,CLR,,1.79,WeatherDisplay:10.37,2013-09-29 15:23:00,
2013-09-29 10:28:00,67.4,65.9,29.99,NNE,32,6.9,6.9,95,0.00,CLR,,1.79,WeatherDisplay:10.37,2013-09-29 15:28:00,
2013-09-29 10:33:00,67.6,66.1,29.99,North,355,9.2,9.2,95,0.00,CLR,,1.79,WeatherDisplay:10.37,2013-09-29 15:33:00,
2013-09-29 10:38:00,67.9,66.4,29.99,NNW,333,6.9,6.9,95,0.00,CLR,,1.79,WeatherDisplay:10.37,2013-09-29 15:38:00,
2013-09-29 10:43:00,68.0,66.2,29.99,North,9,7.0,7.0,94,0.00,CLR,,1.79,WeatherDisplay:10.37,2013-09-29 15:43:00,
2013-09-29 10:48:00,68.1,66.3,29.99,NNE,18,4.6,4.6,94,0.00,CLR,,1.79,WeatherDisplay:10.37,2013-09-29 15:48:00,
2013-09-29 10:53:00,68.2,66.4,29.99,NE,49,4.6,4.6,94,0.00,CLR,,1.79,WeatherDisplay:10.37,2013-09-29 15:53:00,
2013-09-29 10:58:00,68.1,66.0,29.99,NNE,15,3.5,3.5,93,0.00,CLR,,1.79,WeatherDisplay:10.37,2013-09-29 15:58:00,
2013-09-29 11:03:00,68.2,66.4,29.99,NE,46,4.6,4.6,94,0.00,CLR,,1.79,WeatherDisplay:10.37,2013-09-29 16:03:00,
2013-09-29 11:08:00,68.3,66.5,29.99,West,275,6.9,6.9,94,0.00,CLR,,1.79,WeatherDisplay:10.37,2013-09-29 16:08:00,
2013-09-29 11:13:00,68.5,66.4,29.99,North,355,3.5,3.5,93,0.00,CLR,,1.79,WeatherDisplay:10.37,2013-09-29 16:13:00,
2013-09-29 11:18:00,68.6,66.5,29.99,ENE,64,5.0,5.0,93,0.00,CLR,,1.79,WeatherDisplay:10.37,2013-09-29 16:18:00,
2013-09-29 11:23:00,68.6,66.5,29.99,NNW,348,5.8,5.8,93,0.00,CLR,,1.79,WeatherDisplay:10.37,2013-09-29 16:23:00,
2013-09-29 11:28:00,68.6,66.2,29.99,North,360,6.9,6.9,92,0.00,CLR,,1.79,WeatherDisplay:10.37,2013-09-29 16:28:00,
2013-09-29 11:33:00,68.7,66.6,29.98,NNW,337,5.8,5.8,93,0.00,CLR,,1.79,WeatherDisplay:10.37,2013-09-29 16:33:00,
2013-09-29 11:38:00,68.8,66.7,29.99,NNW,340,5.8,5.8,93,0.00,CLR,,1.79,WeatherDisplay:10.37,2013-09-29 16:38:00,
2013-09-29 11:43:00,69.0,66.6,29.99,NNE,12,4.6,4.6,92,0.00,CLR,,1.79,WeatherDisplay:10.37,2013-09-29 16:43:00,
2013-09-29 11:48:00,69.1,66.7,29.99,NNW,327,3.5,3.5,92,0.00,CLR,,1.79,WeatherDisplay:10.37,2013-09-29 16:48:00,
2013-09-29 11:53:00,69.3,66.9,29.99,NNE,16,3.5,3.5,92,0.00,CLR,,1.79,WeatherDisplay:10.37,2013-09-29 16:53:00,
2013-09-29 11:58:00,69.5,67.1,29.98,ENE,66,3.5,3.5,92,0.00,CLR,,1.79,WeatherDisplay:10.37,2013-09-29 16:58:00,
2013-09-29 12:03:00,69.7,67.3,29.98,NE,52,2.3,2.3,92,0.00,CLR,,1.79,WeatherDisplay:10.37,2013-09-29 17:03:00,
2013-09-29 12:08:00,70.0,67.3,29.99,NNE,14,4.6,4.6,91,0.00,CLR,,1.79,WeatherDisplay:10.37,2013-09-29 17:08:00,
2013-09-29 12:13:00,70.1,67.3,29.98,North,355,1.2,1.2,91,0.00,CLR,,1.79,WeatherDisplay:10.37,2013-09-29 17:13:00,
2013-09-29 12:18:00,70.4,67.6,29.98,West,269,4.6,4.6,91,0.00,CLR,,1.79,WeatherDisplay:10.37,2013-09-29 17:18:00,
2013-09-29 12:23:00,70.8,68.0,29.98,NNE,27,3.5,3.5,91,0.00,CLR,,1.79,WeatherDisplay:10.37,2013-09-29 17:23:00,
2013-09-29 12:28:00,71.0,67.9,29.98,NNE,33,1.0,0.0,90,0.00,CLR,,1.79,WeatherDisplay:10.37,2013-09-29 17:28:00,
2013-09-29 12:33:00,71.2,67.8,29.98,North,360,3.5,3.5,89,0.00,CLR,,1.79,WeatherDisplay:10.37,2013-09-29 17:33:00,
2013-09-29 12:38:00,71.3,67.9,29.98,NNE,24,3.5,3.5,89,0.00,CLR,,1.79,WeatherDisplay:10.37,2013-09-29 17:38:00,
2013-09-29 12:43:00,71.5,67.8,29.98,North,5,2.3,2.3,88,0.00,CLR,,1.79,WeatherDisplay:10.37,2013-09-29 17:43:00,
2013-09-29 12:48:00,71.7,68.0,29.97,NNE,31,3.5,3.5,88,0.00,CLR,,1.79,WeatherDisplay:10.37,2013-09-29 17:48:00,
2013-09-29 12:53:00,71.9,68.2,29.97,NNW,329,3.5,3.5,88,0.00,CLR,,1.79,WeatherDisplay:10.37,2013-09-29 17:53:00,
2013-09-29 12:58:00,71.9,68.2,29.97,North,355,4.6,4.6,88,0.00,CLR,,1.79,WeatherDisplay:10.37,2013-09-29 17:58:00,
2013-09-29 13:03:00,72.0,67.9,29.97,NNE,26,4.6,4.6,87,0.00,CLR,,1.79,WeatherDisplay:10.37,2013-09-29 18:03:00,
2013-09-29 13:08:00,72.0,67.6,29.97,North,360,3.5,3.5,86,0.00,CLR,,1.79,WeatherDisplay:10.37,2013-09-29 18:08:00,
2013-09-29 13:13:00,72.1,68.0,29.97,NNE,24,3.5,3.5,87,0.00,CLR,,1.79,WeatherDisplay:10.37,2013-09-29 18:13:00,
2013-09-29 13:18:00,72.2,67.8,29.96,NNW,344,3.5,3.5,86,0.00,CLR,,1.79,WeatherDisplay:10.37,2013-09-29 18:18:00,
2013-09-29 13:23:00,72.3,67.5,29.96,NNW,342,3.0,3.0,85,0.00,CLR,,1.79,WeatherDisplay:10.37,2013-09-29 18:23:00,
2013-09-29 13:28:00,72.3,67.9,29.96,NNE,19,6.0,6.0,86,0.00,CLR,,1.79,WeatherDisplay:10.37,2013-09-29 18:28:00,
2013-09-29 13:33:00,72.5,67.7,29.95,NNE,32,4.6,4.6,85,0.00,CLR,,1.79,WeatherDisplay:10.37,2013-09-29 18:33:00,
2013-09-29 13:38:00,72.6,68.2,29.95,NW,306,3.5,3.5,86,0.00,CLR,,1.79,WeatherDisplay:10.37,2013-09-29 18:38:00,
2013-09-29 13:43:00,72.6,68.2,29.95,North,5,5.0,5.0,86,0.00,CLR,,1.79,WeatherDisplay:10.37,2013-09-29 18:43:00,
2013-09-29 13:48:00,72.6,67.8,29.94,North,360,5.0,5.0,85,0.00,CLR,,1.79,WeatherDisplay:10.37,2013-09-29 18:48:00,
2013-09-29 13:53:00,72.6,67.8,29.94,North,5,4.0,4.0,85,0.00,CLR,,1.79,WeatherDisplay:10.37,2013-09-29 18:53:00,
2013-09-29 13:58:00,72.6,67.8,29.94,NW,309,3.5,3.5,85,0.00,CLR,,1.79,WeatherDisplay:10.37,2013-09-29 18:58:00,
2013-09-29 14:03:00,72.8,68.0,29.93,NNE,27,4.6,4.6,85,0.00,CLR,,1.79,WeatherDisplay:10.37,2013-09-29 19:03:00,
2013-09-29 14:08:00,73.0,68.6,29.93,North,360,4.6,4.6,86,0.00,CLR,,1.79,WeatherDisplay:10.37,2013-09-29 19:08:00,
2013-09-29 14:13:00,73.3,68.9,29.93,WNW,296,4.6,4.6,86,0.00,CLR,,1.79,WeatherDisplay:10.37,2013-09-29 19:13:00,
2013-09-29 14:18:00,73.7,68.9,29.92,NNE,12,5.8,5.8,85,0.00,CLR,,1.79,WeatherDisplay:10.37,2013-09-29 19:18:00,
2013-09-29 14:23:00,74.0,68.5,29.92,North,355,8.1,8.1,83,0.00,CLR,,1.79,WeatherDisplay:10.37,2013-09-29 19:23:00,
2013-09-29 14:28:00,74.1,68.6,29.92,NNE,14,6.9,6.9,83,0.00,CLR,,1.79,WeatherDisplay:10.37,2013-09-29 19:28:00,
2013-09-29 14:33:00,74.1,68.6,29.92,North,349,3.5,3.5,83,0.00,CLR,,1.79,WeatherDisplay:10.37,2013-09-29 19:33:00,
2013-09-29 14:38:00,74.2,69.1,29.92,NW,325,6.9,6.9,84,0.00,CLR,,1.79,WeatherDisplay:10.37,2013-09-29 19:38:00,
2013-09-29 14:43:00,74.2,68.3,29.92,NE,45,5.8,5.8,82,0.00,CLR,,1.79,WeatherDisplay:10.37,2013-09-29 19:43:00,
2013-09-29 14:48:00,74.4,68.9,29.92,NW,313,3.5,3.5,83,0.00,CLR,,1.79,WeatherDisplay:10.37,2013-09-29 19:48:00,
2013-09-29 14:53:00,74.5,68.6,29.92,NNE,23,6.9,6.9,82,0.00,CLR,,1.79,WeatherDisplay:10.37,2013-09-29 19:53:00,
2013-09-29 14:58:00,74.4,68.5,29.91,NNE,23,6.9,6.9,82,0.00,CLR,,1.79,WeatherDisplay:10.37,2013-09-29 19:58:00,
2013-09-29 15:03:00,74.2,68.0,29.91,North,5,6.0,6.0,81,0.00,CLR,,1.79,WeatherDisplay:10.37,2013-09-29 20:03:00,
2013-09-29 15:08:00,74.0,68.2,29.91,WNW,283,6.9,6.9,82,0.00,CLR,,1.79,WeatherDisplay:10.37,2013-09-29 20:08:00,
2013-09-29 15:13:00,73.9,68.1,29.91,North,5,5.8,5.8,82,0.00,CLR,,1.79,WeatherDisplay:10.37,2013-09-29 20:13:00,
2013-09-29 15:18:00,73.9,68.1,29.91,North,355,3.5,3.5,82,0.00,CLR,,1.79,WeatherDisplay:10.37,2013-09-29 20:18:00,
2013-09-29 15:23:00,73.9,68.4,29.91,NNE,21,3.5,3.5,83,0.00,CLR,,1.79,WeatherDisplay:10.37,2013-09-29 20:23:00,
2013-09-29 15:28:00,73.8,68.3,29.90,North,355,4.6,4.6,83,0.00,CLR,,1.79,WeatherDisplay:10.37,2013-09-29 20:28:00,
2013-09-29 15:33:00,73.7,67.9,29.90,NW,309,3.5,3.5,82,0.00,CLR,,1.79,WeatherDisplay:10.37,2013-09-29 20:33:00,
2013-09-29 15:38:00,73.7,67.9,29.90,West,279,3.5,3.5,82,0.00,CLR,,1.79,WeatherDisplay:10.37,2013-09-29 20:38:00,
2013-09-29 15:43:00,73.7,68.2,29.90,NNE,28,3.5,3.5,83,0.00,CLR,,1.79,WeatherDisplay:10.37,2013-09-29 20:43:00,
2013-09-29 15:48:00,73.7,67.9,29.90,NNW,348,6.9,6.9,82,0.00,CLR,,1.79,WeatherDisplay:10.37,2013-09-29 20:48:00,
2013-09-29 15:53:00,73.7,68.2,29.90,ENE,73,3.5,3.5,83,0.00,CLR,,1.79,WeatherDisplay:10.37,2013-09-29 20:53:00,
2013-09-29 15:58:00,73.8,68.7,29.89,North,360,2.3,2.3,84,0.00,CLR,,1.79,WeatherDisplay:10.37,2013-09-29 20:58:00,
2013-09-29 16:03:00,74.0,68.5,29.89,NNE,23,4.6,4.6,83,0.00,CLR,,1.79,WeatherDisplay:10.37,2013-09-29 21:03:00,
2013-09-29 16:08:00,74.3,68.4,29.89,NE,49,4.6,4.6,82,0.00,CLR,,1.79,WeatherDisplay:10.37,2013-09-29 21:08:00,
2013-09-29 16:13:00,74.6,69.1,29.89,North,5,5.8,5.8,83,0.00,CLR,,1.79,WeatherDisplay:10.37,2013-09-29 21:13:00,
2013-09-29 16:18:00,75.0,69.1,29.89,ENE,74,3.5,3.5,82,0.00,CLR,,1.79,WeatherDisplay:10.37,2013-09-29 21:18:00,
2013-09-29 16:23:00,75.4,69.5,29.89,NNE,22,5.8,5.8,82,0.00,CLR,,1.79,WeatherDisplay:10.37,2013-09-29 21:23:00,
2013-09-29 16:28:00,75.6,69.0,29.89,NNE,21,4.6,4.6,80,0.00,CLR,,1.79,WeatherDisplay:10.37,2013-09-29 21:28:00,
2013-09-29 16:33:00,75.7,69.1,29.89,NE,34,5.8,5.8,80,0.00,CLR,,1.79,WeatherDisplay:10.37,2013-09-29 21:33:00,
2013-09-29 16:38:00,75.7,68.4,29.89,NW,313,5.8,5.8,78,0.00,CLR,,1.79,WeatherDisplay:10.37,2013-09-29 21:38:00,
2013-09-29 16:43:00,75.6,69.0,29.89,NNW,344,5.8,5.8,80,0.00,CLR,,1.79,WeatherDisplay:10.37,2013-09-29 21:43:00,
2013-09-29 16:48:00,75.7,69.1,29.89,NNE,15,4.6,4.6,80,0.00,CLR,,1.79,WeatherDisplay:10.37,2013-09-29 21:48:00,
2013-09-29 16:53:00,75.8,69.2,29.89,North,350,4.0,4.0,80,0.00,CLR,,1.79,WeatherDisplay:10.37,2013-09-29 21:53:00,
2013-09-29 16:58:00,75.9,68.9,29.89,NNE,29,4.6,4.6,79,0.00,CLR,,1.79,WeatherDisplay:10.37,2013-09-29 21:58:00,
2013-09-29 17:03:00,75.8,68.8,29.89,ENE,67,6.9,6.9,79,0.00,CLR,,1.79,WeatherDisplay:10.37,2013-09-29 22:03:00,
2013-09-29 17:08:00,75.7,68.7,29.89,NE,44,3.5,3.5,79,0.00,CLR,,1.79,WeatherDisplay:10.37,2013-09-29 22:08:00,
2013-09-29 17:13:00,75.4,68.1,29.89,NNW,330,8.1,8.1,78,0.00,CLR,,1.79,WeatherDisplay:10.37,2013-09-29 22:13:00,
2013-09-29 17:18:00,75.3,68.7,29.89,NE,49,3.5,3.5,80,0.00,CLR,,1.79,WeatherDisplay:10.37,2013-09-29 22:18:00,
2013-09-29 17:23:00,75.0,67.7,29.89,NE,41,3.5,3.5,78,0.00,CLR,,1.79,WeatherDisplay:10.37,2013-09-29 22:23:00,
2013-09-29 17:28:00,74.8,67.8,29.89,NNW,340,5.8,5.8,79,0.00,CLR,,1.79,WeatherDisplay:10.37,2013-09-29 22:28:00,
2013-09-29 17:33:00,74.7,68.1,29.89,NE,34,4.6,4.6,80,0.00,CLR,,1.79,WeatherDisplay:10.37,2013-09-29 22:33:00,
2013-09-29 17:38:00,74.6,68.0,29.89,ENE,58,3.0,3.0,80,0.00,CLR,,1.79,WeatherDisplay:10.37,2013-09-29 22:38:00,
2013-09-29 17:43:00,74.4,67.8,29.89,NE,35,3.5,3.5,80,0.00,CLR,,1.79,WeatherDisplay:10.37,2013-09-29 22:43:00,
2013-09-29 17:48:00,74.2,67.6,29.90,East,88,2.3,2.3,80,0.00,CLR,,1.79,WeatherDisplay:10.37,2013-09-29 22:48:00,
2013-09-29 17:53:00,74.1,67.9,29.89,North,360,4.6,4.6,81,0.00,CLR,,1.79,WeatherDisplay:10.37,2013-09-29 22:53:00,
2013-09-29 17:58:00,73.9,67.7,29.89,NE,36,3.5,3.5,81,0.00,CLR,,1.79,WeatherDisplay:10.37,2013-09-29 22:58:00,
2013-09-29 18:03:00,73.7,67.5,29.89,NNE,17,5.8,5.8,81,0.00,CLR,,1.79,WeatherDisplay:10.37,2013-09-29 23:03:00,
2013-09-29 18:08:00,73.5,67.3,29.89,NNE,26,1.2,1.2,81,0.00,CLR,,1.79,WeatherDisplay:10.37,2013-09-29 23:08:00,
2013-09-29 18:13:00,73.3,67.5,29.89,NE,34,3.5,3.5,82,0.00,CLR,,1.79,WeatherDisplay:10.37,2013-09-29 23:13:00,
2013-09-29 18:18:00,73.2,67.0,29.89,North,355,3.5,3.5,81,0.00,CLR,,1.79,WeatherDisplay:10.37,2013-09-29 23:18:00,
2013-09-29 18:23:00,73.1,67.6,29.89,NE,48,1.2,1.2,83,0.00,CLR,,1.79,WeatherDisplay:10.37,2013-09-29 23:23:00,
2013-09-29 18:28:00,73.0,67.5,29.89,NNW,336,0.0,0.5,83,0.00,CLR,,1.79,WeatherDisplay:10.37,2013-09-29 23:28:00,
2013-09-29 18:33:00,72.9,67.4,29.89,NE,37,3.5,3.5,83,0.00,CLR,,1.79,WeatherDisplay:10.37,2013-09-29 23:33:00,
2013-09-29 18:38:00,72.8,67.3,29.89,NE,34,3.5,3.5,83,0.00,CLR,,1.79,WeatherDisplay:10.37,2013-09-29 23:38:00,
2013-09-29 18:43:00,72.6,67.5,29.89,NE,34,2.3,2.3,84,0.00,CLR,,1.79,WeatherDisplay:10.37,2013-09-29 23:43:00,
2013-09-29 18:48:00,72.6,67.1,29.89,North,5,3.5,3.5,83,0.00,CLR,,1.79,WeatherDisplay:10.37,2013-09-29 23:48:00,
2013-09-29 18:53:00,72.5,67.4,29.90,NNE,22,1.2,1.2,84,0.00,CLR,,1.79,WeatherDisplay:10.37,2013-09-29 23:53:00,
2013-09-29 18:58:00,72.4,67.3,29.90,NNE,21,1.2,0.0,84,0.00,CLR,,1.79,WeatherDisplay:10.37,2013-09-29 23:58:00,
2013-09-29 19:03:00,72.3,67.2,29.90,NNE,25,0.0,0.0,84,0.00,CLR,,1.79,WeatherDisplay:10.37,2013-09-30 00:03:00,
2013-09-29 19:08:00,72.1,67.3,29.90,NNE,33,0.0,0.2,85,0.00,CLR,,1.79,WeatherDisplay:10.37,2013-09-30 00:08:00,
2013-09-29 19:13:00,72.1,67.3,29.90,NNE,33,0.0,0.0,85,0.00,CLR,,1.79,WeatherDisplay:10.37,2013-09-30 00:13:00,
2013-09-29 19:18:00,72.0,67.2,29.90,NNE,33,0.0,0.0,85,0.00,CLR,,1.79,WeatherDisplay:10.37,2013-09-30 00:18:00,
2013-09-29 19:23:00,71.8,67.4,29.90,NNE,33,0.0,0.0,86,0.00,CLR,,1.79,WeatherDisplay:10.37,2013-09-30 00:23:00,
2013-09-29 19:28:00,71.6,67.2,29.90,NNE,33,0.0,0.0,86,0.00,CLR,,1.79,WeatherDisplay:10.37,2013-09-30 00:28:00,
2013-09-29 19:33:00,71.5,67.1,29.90,NNE,33,0.0,0.0,86,0.00,CLR,,1.79,WeatherDisplay:10.37,2013-09-30 00:33:00,
2013-09-29 19:38:00,71.3,66.9,29.90,NNE,33,0.0,0.0,86,0.00,CLR,,1.79,WeatherDisplay:10.37,2013-09-30 00:38:00,
2013-09-29 19:43:00,71.1,67.0,29.90,NNE,33,0.0,0.0,87,0.00,CLR,,1.79,WeatherDisplay:10.37,2013-09-30 00:43:00,
2013-09-29 19:48:00,70.9,66.8,29.90,NNE,33,0.0,0.0,87,0.00,CLR,,1.79,WeatherDisplay:10.37,2013-09-30 00:48:00,
2013-09-29 19:54:00,70.7,66.6,29.90,NNE,33,0.0,0.0,87,0.00,CLR,,1.79,WeatherDisplay:10.37,2013-09-30 00:54:00,
2013-09-29 19:59:00,70.4,66.7,29.90,NNE,33,0.0,0.0,88,0.00,CLR,,1.79,WeatherDisplay:10.37,2013-09-30 00:59:00,
2013-09-29 20:04:00,70.2,66.5,29.90,NNE,33,0.0,0.0,88,0.00,CLR,,1.79,WeatherDisplay:10.37,2013-09-30 01:04:00,
2013-09-29 20:09:00,70.0,66.3,29.90,NNE,33,0.0,0.0,88,0.00,CLR,,1.79,WeatherDisplay:10.37,2013-09-30 01:09:00,
2013-09-29 20:14:00,69.9,66.5,29.90,NNE,33,0.0,0.0,89,0.00,CLR,,1.79,WeatherDisplay:10.37,2013-09-30 01:14:00,
2013-09-29 20:19:00,69.7,66.3,29.90,NNE,33,0.0,0.0,89,0.00,CLR,,1.79,WeatherDisplay:10.37,2013-09-30 01:19:00,
2013-09-29 20:24:00,69.6,66.2,29.90,NNE,33,0.0,0.0,89,0.00,CLR,,1.79,WeatherDisplay:10.37,2013-09-30 01:24:00,
2013-09-29 20:29:00,69.6,66.2,29.90,NNE,33,0.0,0.0,89,0.00,CLR,,1.79,WeatherDisplay:10.37,2013-09-30 01:29:00,
2013-09-29 20:34:00,69.5,66.1,29.90,NNE,33,0.0,0.0,89,0.00,CLR,,1.79,WeatherDisplay:10.37,2013-09-30 01:34:00,
2013-09-29 20:39:00,69.3,65.9,29.91,NNE,33,0.0,0.0,89,0.00,CLR,,1.79,WeatherDisplay:10.37,2013-09-30 01:39:00,
2013-09-29 20:44:00,69.1,65.7,29.91,NNE,33,0.0,0.0,89,0.00,CLR,,1.79,WeatherDisplay:10.37,2013-09-30 01:44:00,
2013-09-29 20:49:00,69.1,65.7,29.91,NNE,33,0.0,0.0,89,0.00,CLR,,1.79,WeatherDisplay:10.37,2013-09-30 01:49:00,
2013-09-29 20:54:00,69.0,65.9,29.91,NNE,33,0.0,0.0,90,0.00,CLR,,1.79,WeatherDisplay:10.37,2013-09-30 01:54:00,
2013-09-29 20:59:00,68.9,65.8,29.91,NNE,33,0.0,0.0,90,0.00,CLR,,1.79,WeatherDisplay:10.37,2013-09-30 01:59:00,
2013-09-29 21:04:00,68.8,65.7,29.91,NNE,33,0.0,0.0,90,0.00,CLR,,1.79,WeatherDisplay:10.37,2013-09-30 02:04:00,
2013-09-29 21:09:00,68.6,65.9,29.91,NNE,33,0.0,0.0,91,0.00,CLR,,1.79,WeatherDisplay:10.37,2013-09-30 02:09:00,
2013-09-29 21:14:00,68.4,65.7,29.91,NNE,33,0.0,0.0,91,0.00,CLR,,1.79,WeatherDisplay:10.37,2013-09-30 02:14:00,
2013-09-29 21:19:00,68.3,65.6,29.91,NNE,33,0.0,0.0,91,0.00,CLR,,1.79,WeatherDisplay:10.37,2013-09-30 02:19:00,
2013-09-29 21:24:00,68.1,65.4,29.91,NNE,33,0.0,0.0,91,0.00,CLR,,1.79,WeatherDisplay:10.37,2013-09-30 02:24:00,
2013-09-29 21:29:00,68.0,65.3,29.92,NNE,33,0.0,0.0,91,0.00,CLR,,1.79,WeatherDisplay:10.37,2013-09-30 02:29:00,
2013-09-29 21:34:00,67.9,65.2,29.91,NNE,33,0.0,0.0,91,0.00,CLR,,1.79,WeatherDisplay:10.37,2013-09-30 02:34:00,
2013-09-29 21:39:00,67.8,65.4,29.91,NNE,33,0.0,0.0,92,0.00,CLR,,1.79,WeatherDisplay:10.37,2013-09-30 02:39:00,
2013-09-29 21:44:00,67.7,65.3,29.91,NNE,33,0.0,0.0,92,0.00,CLR,,1.79,WeatherDisplay:10.37,2013-09-30 02:44:00,
2013-09-29 21:49:00,67.6,65.2,29.91,NNE,33,0.0,0.0,92,0.00,CLR,,1.79,WeatherDisplay:10.37,2013-09-30 02:49:00,
2013-09-29 21:54:00,67.6,65.2,29.92,NNE,33,0.0,0.0,92,0.00,CLR,,1.79,WeatherDisplay:10.37,2013-09-30 02:54:00,
2013-09-29 21:59:00,67.5,65.1,29.92,NNE,33,0.0,0.0,92,0.00,CLR,,1.79,WeatherDisplay:10.37,2013-09-30 02:59:00,
2013-09-29 22:04:00,67.4,65.0,29.92,NNE,33,0.0,0.0,92,0.00,CLR,,1.79,WeatherDisplay:10.37,2013-09-30 03:04:00,
2013-09-29 22:09:00,67.3,64.9,29.92,NNE,33,0.0,0.0,92,0.00,CLR,,1.79,WeatherDisplay:10.37,2013-09-30 03:09:00,
2013-09-29 22:15:00,67.3,65.2,29.92,NNE,33,0.0,0.0,93,0.00,CLR,,1.79,WeatherDisplay:10.37,2013-09-30 03:15:00,
2013-09-29 22:20:00,67.3,64.9,29.92,NNE,33,0.0,0.0,92,0.00,CLR,,1.79,WeatherDisplay:10.37,2013-09-30 03:20:00,
2013-09-29 22:25:00,67.3,65.2,29.92,NNE,33,0.0,0.0,93,0.00,CLR,,1.79,WeatherDisplay:10.37,2013-09-30 03:25:00,
2013-09-29 22:30:00,67.2,65.1,29.92,NNE,33,0.0,0.0,93,0.00,CLR,,1.79,WeatherDisplay:10.37,2013-09-30 03:30:00,
2013-09-29 22:35:00,67.2,64.8,29.92,NNE,33,0.0,0.0,92,0.00,CLR,,1.79,WeatherDisplay:10.37,2013-09-30 03:35:00,
2013-09-29 22:40:00,67.0,64.9,29.93,NNE,33,0.0,0.0,93,0.00,CLR,,1.79,WeatherDisplay:10.37,2013-09-30 03:40:00,
2013-09-29 22:45:00,67.2,65.1,29.92,NNE,33,0.0,0.0,93,0.00,CLR,,1.79,WeatherDisplay:10.37,2013-09-30 03:45:00,
2013-09-29 22:50:00,67.2,64.8,29.93,NNE,33,0.0,0.0,92,0.00,CLR,,1.79,WeatherDisplay:10.37,2013-09-30 03:50:00,
2013-09-29 22:55:00,67.0,64.6,29.93,NNE,33,0.0,0.0,92,0.00,CLR,,1.79,WeatherDisplay:10.37,2013-09-30 03:55:00,
2013-09-29 23:00:00,67.0,64.6,29.93,NNE,33,0.0,0.0,92,0.00,CLR,,1.79,WeatherDisplay:10.37,2013-09-30 04:00:00,
2013-09-29 23:01:00,66.9,64.5,29.93,NNE,33,0.0,0.0,92,0.00,CLR,,1.79,WeatherDisplay:10.37,2013-09-30 04:01:00,
2013-09-29 23:06:00,66.9,64.8,29.92,NNE,33,0.0,0.0,93,0.00,CLR,,1.79,WeatherDisplay:10.37,2013-09-30 04:06:00,
2013-09-29 23:11:00,66.8,64.7,29.93,NNE,33,0.0,0.0,93,0.00,CLR,,1.79,WeatherDisplay:10.37,2013-09-30 04:11:00,
2013-09-29 23:16:00,66.8,64.7,29.93,NNE,33,0.0,0.0,93,0.00,CLR,,1.79,WeatherDisplay:10.37,2013-09-30 04:16:00,
2013-09-29 23:21:00,66.8,64.7,29.93,NNE,33,0.0,0.0,93,0.00,CLR,,1.79,WeatherDisplay:10.37,2013-09-30 04:21:00,
2013-09-29 23:26:00,66.8,64.7,29.92,NNE,33,0.0,0.0,93,0.00,CLR,,1.79,WeatherDisplay:10.37,2013-09-30 04:26:00,
2013-09-29 23:31:00,66.8,64.7,29.92,NNE,33,0.0,0.0,93,0.00,CLR,,1.79,WeatherDisplay:10.37,2013-09-30 04:31:00,
2013-09-29 23:36:00,66.7,64.6,29.92,NNE,33,0.0,0.0,93,0.00,CLR,,1.79,WeatherDisplay:10.37,2013-09-30 04:36:00,
2013-09-29 23:41:00,66.7,64.9,29.92,NNE,33,0.0,0.0,94,0.00,CLR,,1.79,WeatherDisplay:10.37,2013-09-30 04:41:00,
2013-09-29 23:46:00,66.7,64.6,29.92,NNE,33,0.0,0.0,93,0.00,CLR,,1.79,WeatherDisplay:10.37,2013-09-30 04:46:00,
2013-09-29 23:51:00,66.6,64.5,29.92,NNE,33,0.0,0.0,93,0.00,CLR,,1.79,WeatherDisplay:10.37,2013-09-30 04:51:00,
2013-09-29 23:56:00,66.6,64.8,29.92,NNE,33,0.0,0.0,94,0.00,CLR,,1.79,WeatherDisplay:10.37,2013-09-30 04:56:00,